sat.trackr.live / text

‹ back to catalog

SITRO-AIS 14

NORAD 61752 · 2024-199T

PAYLOAD ACTIVE UNKNOWN

§ Identity

Operator
Country
CIS
Launch date
2024-11-04
Launch site
VOSTO
Launch vehicle
Mass (kg)
RCS (m²)

External: N2YO · Heavens-Above · Gunter

§ Orbital elements

Epoch: 2026-05-25T03:16:46.693920Z

Period
96.16 min
Inclination
97.3252°
Eccentricity
0.0007070
Mean motion
14.97533430 rev/d
Perigee alt
569.6 km
Apogee alt
579.4 km
Semi-major
6,952.7 km
B*
1.6183e-4
RAAN
345.9812°
Arg perigee
135.0189°
Mean anomaly
225.1608°
Rev number
13,167

§ Raw data

SITRO-AIS 141 61752U 24199T   26145.13665155  .00001835  00000+0  16183-3 0  99942 61752  97.3252 345.9812 0007070 135.0189 225.1608 14.97533430131675

JSON: /api/v1/satellites/61752 · /tle

For live sub-satellite position, see the globe view (requires WebGL).

§ Visibility from observer

Set your observer location to see the next 7 days of passes ≥ 10°. The values pass through the URL so the page stays shareable.

No JS? Fill the form by hand. The geolocation button needs JavaScript.

§ Radio — SatNOGS DB

ModeDescriptionDownlinkUplink
GMSK USP Mode U - GMSK2k4 - USP 401.035 MHz

1 transmitter · refreshed weekly from db.satnogs.org